China Lake, CA

3:53 AM PDT on May 28, 2017 (GMT -0700)
China Lake NAWS

Weather History for KNID - October, 2010

Change the Weather History Date:

Wednesday, October 13, 2010

  Actual Average Record
Temperature  
Mean Temperature 72 °F -  
Max Temperature 91 °F 81 °F 96 °F (2011)
Min Temperature 53 °F 52 °F 42 °F (2000)
Cooling Degree Days 7    
Growing Degree Days 22 (Base 50)    
Moisture  
Dew Point 32 °F    
Average Humidity 26    
Maximum Humidity 52    
Minimum Humidity 9    
Precipitation  
Precipitation 0.00 in - - ()
Sea Level Pressure  
Sea Level Pressure 30.10 in    
Wind  
Wind Speed 6 mph (South)    
Max Wind Speed 9 mph    
Max Gust Speed -    
Visibility 10 miles    
Events      
Averages and records for this station are not official NWS values.
T = Trace of Precipitation, MM = Missing Value Source: NWS Daily Summary

Daily Weather History Graph

Daily Weather History Graph

Search for Another Location

Airport or City:

Trip Planner

Search our weather history database for the weather conditions in past years. The results will help you decide how hot, cold, wet, or windy it might be!

Date:

Astronomy

Oct. 13, 2010 Rise Set
Actual Time 6:55 AM PDT 6:17 PM PDT
Civil Twilight 6:29 AM PDT 6:43 PM PDT
Nautical Twilight 6:00 AM PDT 7:12 PM PDT
Astronomical Twilight 5:30 AM PDT 7:42 PM PDT
Moon 1:09 PM PDT (10/13) 11:10 PM PDT (10/13)
Length of Visible Light 12h 13m
Length of Day
11h 22m
Waxing Crescent, 39% of the Moon is Illuminated
Oct 13
Waxing Crescent
Oct 14
First Quarter
Oct 22
Full
Oct 30
Last Quarter
Nov 5
New

Hourly Weather History & Observations

Time (PDT) Temp. Dew Point Humidity Pressure Visibility Wind Dir Wind Speed Gust Speed Precip Events Conditions
12:56 AM 64.9 °F 37.0 °F 36% 30.08 in - WSW 8.1 mph - N/A   Clear
1:56 AM 64.9 °F 39.0 °F 39% 30.09 in - WSW 4.6 mph - N/A   Partly Cloudy
2:56 AM 63.0 °F 37.0 °F 38% 30.08 in - South 5.8 mph - N/A   Clear
3:56 AM 60.1 °F 37.9 °F 44% 30.08 in - Calm Calm - N/A   Partly Cloudy
4:56 AM 59.0 °F 37.9 °F 46% 30.09 in 10.0 mi South 8.1 mph - N/A   Clear
5:56 AM 57.0 °F 37.0 °F 47% 30.11 in 10.0 mi SSW 6.9 mph - N/A   Clear
6:56 AM 53.1 °F 36.0 °F 52% 30.14 in 10.0 mi SSW 8.1 mph - N/A   Clear
7:56 AM 60.1 °F 36.0 °F 41% 30.16 in 10.0 mi SSW 5.8 mph - N/A   Clear
8:56 AM 72.0 °F 39.0 °F 30% 30.17 in 10.0 mi West 3.5 mph - N/A   Clear
9:56 AM 75.9 °F 39.0 °F 26% 30.16 in 10.0 mi Calm Calm - N/A   Clear
10:56 AM 81.0 °F 28.0 °F 14% 30.15 in 10.0 mi Calm Calm - N/A   Clear
11:56 AM 84.9 °F 28.0 °F 13% 30.13 in 10.0 mi Variable 3.5 mph - N/A   Clear
12:56 PM 87.1 °F 26.1 °F 11% 30.12 in 10.0 mi SE 3.5 mph - N/A   Clear
1:56 PM 91.0 °F 26.1 °F 10% 30.08 in 10.0 mi East 5.8 mph - N/A   Clear
2:56 PM 91.0 °F 25.0 °F 9% 30.07 in 10.0 mi ESE 9.2 mph - N/A   Clear
3:56 PM 90.0 °F 28.9 °F 11% 30.06 in 10.0 mi East 8.1 mph - N/A   Clear
4:56 PM 90.0 °F 28.9 °F 11% 30.05 in 10.0 mi ESE 8.1 mph - N/A   Clear
5:56 PM 87.1 °F 30.0 °F 13% 30.05 in 10.0 mi East 5.8 mph - N/A   Clear
6:56 PM 81.0 °F 30.0 °F 16% 30.08 in 10.0 mi East 6.9 mph - N/A   Clear
7:56 PM 75.0 °F 28.9 °F 18% 30.09 in 10.0 mi SE 4.6 mph - N/A   Clear
8:56 PM 70.0 °F 28.9 °F 22% 30.09 in 10.0 mi WSW 6.9 mph - N/A   Clear
9:56 PM 69.1 °F 28.9 °F 22% 30.10 in 10.0 mi WSW 6.9 mph - N/A   Clear
10:56 PM 66.0 °F 28.0 °F 24% 30.11 in 10.0 mi SW 5.8 mph - N/A   Clear
11:56 PM 64.0 °F 28.0 °F 26% 30.10 in - SSW 5.8 mph - N/A   Partly Cloudy